TimeMDT,TemperatureF,Dew PointF,Humidity,Sea Level PressureIn,VisibilityMPH,Wind Direction,Wind SpeedMPH,Gust SpeedMPH,PrecipitationIn,Events,Conditions,WindDirDegrees,DateUTC
12:53 AM,48.0,36.0,63,29.87,10.0,Calm,Calm,-,N/A,,Mostly Cloudy,0,2013-04-06 06:53:00
1:53 AM,42.1,32.0,67,29.89,10.0,ESE,4.6,-,N/A,,Clear,110,2013-04-06 07:53:00
2:53 AM,48.9,32.0,52,29.86,10.0,East,5.8,-,N/A,,Clear,90,2013-04-06 08:53:00
3:53 AM,46.9,32.0,56,29.85,10.0,Calm,Calm,-,N/A,,Clear,0,2013-04-06 09:53:00
4:53 AM,45.0,32.0,60,29.86,10.0,Calm,Calm,-,N/A,,Clear,0,2013-04-06 10:53:00
5:53 AM,41.0,30.9,67,29.90,10.0,SSE,3.5,-,N/A,,Clear,160,2013-04-06 11:53:00
6:53 AM,39.0,30.0,70,29.93,10.0,Calm,Calm,-,N/A,,Clear,0,2013-04-06 12:53:00
7:53 AM,43.0,30.9,62,29.94,10.0,East,4.6,-,N/A,,Clear,100,2013-04-06 13:53:00
8:53 AM,48.0,32.0,54,29.94,10.0,SSE,5.8,-,N/A,,Clear,150,2013-04-06 14:53:00
9:53 AM,52.0,30.9,45,29.92,10.0,SSE,3.5,-,N/A,,Clear,150,2013-04-06 15:53:00
10:53 AM,55.9,30.0,37,29.93,10.0,Calm,Calm,-,N/A,,Clear,0,2013-04-06 16:53:00
11:53 AM,57.9,27.0,31,29.91,10.0,Calm,Calm,-,N/A,,Clear,0,2013-04-06 17:53:00
12:53 PM,62.1,26.1,25,29.88,10.0,Variable,4.6,-,N/A,,Clear,0,2013-04-06 18:53:00
1:53 PM,63.0,21.0,20,29.86,10.0,Calm,Calm,-,N/A,,Clear,0,2013-04-06 19:53:00
2:53 PM,64.9,19.9,18,29.80,10.0,Variable,5.8,18.4,N/A,,Clear,0,2013-04-06 20:53:00
3:53 PM,64.0,19.0,18,29.77,10.0,Variable,4.6,17.3,N/A,,Clear,0,2013-04-06 21:53:00
4:53 PM,64.9,19.0,17,29.76,10.0,WNW,8.1,-,N/A,,Clear,290,2013-04-06 22:53:00
5:17 PM,64.4,17.6,16,29.87,10.0,West,11.5,19.6,N/A,,Clear,280,2013-04-06 23:17:00
5:53 PM,64.0,18.0,17,29.76,10.0,West,9.2,-,N/A,,Overcast,260,2013-04-06 23:53:00
6:53 PM,62.1,24.1,23,29.78,10.0,WNW,18.4,-,N/A,,Overcast,300,2013-04-07 00:53:00
7:53 PM,57.9,28.9,33,29.82,10.0,NW,23.0,28.8,N/A,,Overcast,320,2013-04-07 01:53:00
8:53 PM,54.0,35.1,49,29.86,10.0,NNW,15.0,-,0.00,Rain,Light Rain,330,2013-04-07 02:53:00
9:53 PM,54.0,34.0,47,29.85,10.0,South,3.5,-,0.00,,Overcast,170,2013-04-07 03:53:00
10:53 PM,48.0,32.0,54,29.86,10.0,Calm,Calm,-,N/A,,Partly Cloudy,0,2013-04-07 04:53:00
11:53 PM,46.0,30.9,56,29.86,10.0,Calm,Calm,-,N/A,,Clear,0,2013-04-07 05:53:00